Location: Stilling
(56.0622°N, 9.9882°E)
Time: 13:15:07
(UTC+00:00)

Cosmos 1603 - Pass Details

Date: 13 July 2020
Orbit: 830 x 861 km, 71.0° (Epoch: 06 August)

Event Time Altitude Azimuth Distance (km) Brightness Sun altitude
Exits shadow 23:26:30 - 220° (SW) 2,607 5.8 -12.3°
Reaches altitude 10° 23:26:51 10° 220° (SW) 2,474 5.7 -12.3°
Maximum altitude 23:32:33 76° 307° (NW) 886 3.9 -12.3°
Drops below altitude 10° 23:38:20 10° 33° (NNE) 2,506 7.1 -12.3°
Sets 23:40:49 0° 36° (NE) 3,449 7.9 -12.2°
